Regional Weather Roundup
Issued by NWS Cleveland, OH

Home | Current Version | Previous Version | Graphics & Text | Print | Product List | Glossary On
Versions: 1 2 3 4 5 6 7 8 9 10 11 12 13 14 15 16 17 18 19 20 21 22 23 24 25 26 27 28 29 30 31 32 33 34 35 36 37 38 39 40 41 42 43 44 45 46 47 48 49 50
000
ASUS41 KCLE 270402
RWRCLE
OHIO REGIONAL WEATHER ROUNDUP
NATIONAL WEATHER SERVICE CLEVELAND, OH
1200 AM EDT TUE SEP 27 2016

NOTE: "FAIR" INDICATES FEW OR NO CLOUDS BELOW 12,000 FEET WITH NO
SIGNIFICANT WEATHER AND/OR OBSTRUCTIONS TO VISIBILITY.

OHZ001>008-015>018-024>027-034-035-043-044-270500-
   NORTHWEST OHIO

CITY           SKY/WX    TMP DP  RH WIND       PRES   REMARKS
DEFIANCE       CLEAR     53  40  61 SW5       29.96S
FINDLAY        CLEAR     54  42  64 SW7       29.96S
TOLEDO EXPRESS CLEAR     47  47 100 SW5       29.94S
TOLEDO EXEC    CLEAR     53  45  74 SW6       29.95S
LIMA           CLEAR     55  45  68 SW9       29.98F
$$

OHZ009>014-019>023-028>033-038-089-270500-
   NORTHEAST OHIO

CITY           SKY/WX    TMP DP  RH WIND       PRES   REMARKS
CLE-HOPKINS    CLEAR     58  46  64 S10       29.97F
CLE-LAKEFRONT  CLEAR     57  49  74 S10       29.94F
CUY CO. ARPT   NOT AVBL
LORAIN-ELYRIA  CLEAR     49  44  83 SW6       29.96F
ASHTABULA      CLEAR     55  53  93 SW8       29.96S
AKRON-CANTON   CLEAR     53  48  83 SW7       29.99F
WOOSTER        CLEAR     52  48  86 SW7       29.99F
MANSFIELD      CLEAR     51  45  79 S6        29.98F
YOUNGSTOWN     PTCLDY    55  53  93 S7        29.98F
$$

OHZ042-051>053-060>062-070>072-077>081-270500-
  SOUTHWEST OHIO

CITY           SKY/WX    TMP DP  RH WIND       PRES   REMARKS
CINC-COVINGTON CLEAR     55  50  83 SW6       30.05F
CINC-LUNKEN    CLEAR     53  53 100 S3        30.06F
HAMILTON       CLEAR     49  47  93 CALM      30.05F
DAYTON         CLEAR     55  46  71 SW10      30.03F
WRIGHT-PAT AFB CLEAR     52  48  87 SW5       30.02F
DAYTON GENERAL CLEAR     53  47  79 S5        30.03F
WILMINGTON     CLEAR     52  50  93 SW3       30.04F
$$

OHZ036-037-039>041-045>050-054>059-063>069-073>076-082>088-270500-
  CENTRAL AND SOUTHEAST OHIO

CITY           SKY/WX    TMP DP  RH WIND       PRES   REMARKS
COLUMBUS       CLEAR     55  51  86 S6        30.01F
OSU AIRPORT    CLEAR     54  49  83 SW6       30.01F
BOLTON FIELD   CLEAR     50  48  93 SW7       30.03S
RICKENBACK AFB CLEAR     52  49  89 SW6       30.02F
NEWARK         CLEAR     49  47  93 S3        30.02S
MARION         CLEAR     53  45  74 SW8       29.99F
LANCASTER      CLEAR     53  48  83 SW5       30.03F
ZANESVILLE     CLEAR     54  52  93 S5        30.03S
NEW PHILLY     FOG       54  54 100 SE3       30.02S VSB 1/4
$$



USA.gov is the U.S. government's official web portal to all federal, state and local government web resources and services.